Weather History for St. George, AK

Change the Weather History Date:

Sunday, February 10, 2013

  Actual Average Record
Temperature  
Mean Temperature 16 °F -  
Max Temperature 21 °F 28 °F 39 °F (2001)
Min Temperature 10 °F 22 °F 7 °F (2002)
Degree Days  
Heating Degree Days 50    
Moisture  
Dew Point 9 °F    
Average Humidity 80    
Maximum Humidity 96    
Minimum Humidity 62    
Precipitation  
Precipitation 0.04 in - - ()
Sea Level Pressure  
Sea Level Pressure 29.30 in    
Wind  
Wind Speed 15 mph (WNW)    
Max Wind Speed 21 mph    
Max Gust Speed 29 mph    
Visibility 3 miles    
Events Snow    
Averages and records for this station are not official NWS values.
T = Trace of Precipitation, MM = Missing Value Source: NWS Daily Summary

Daily Weather History Graph

Daily Weather History Graph

Search for Another Location

Airport:

Trip Planner

Search our weather history database for the weather conditions in past years. The results will help you decide how hot, cold, wet, or windy it might be!

Date:

Astronomy

Feb. 10, 2013 Rise Set
Actual Time 9:55 AM AKST 7:10 PM AKST
Civil Twilight 9:15 AM AKST 7:51 PM AKST
Nautical Twilight 8:31 AM AKST 8:35 PM AKST
Astronomical Twilight 7:47 AM AKST 9:19 PM AKST
Moon 9:35 AM AKST (2/10) 8:39 PM AKST (2/10)
Length of Visible Light 10h 35m
Length of Day
9h 15m
New Moon, 0% of the Moon is Illuminated
Feb 10
New Moon
Feb 17
First Quarter
Feb 25
Full
Mar 4
Last Quarter
Mar 11
New

Hourly Weather History & Observations

Time (AKST) Temp. Windchill Dew Point Humidity Pressure Visibility Wind Dir Wind Speed Gust Speed Precip Events Conditions
12:02 AM 10.4 °F -7.2 °F 6.8 °F 85% 29.19 in 1.0 mi NNW 17.3 mph - 0.00 in Snow Light Snow
12:09 AM 10.4 °F -7.7 °F 6.8 °F 85% 29.19 in 2.0 mi NNW 18.4 mph 24.2 mph 0.00 in Snow Light Snow
12:19 AM 10.4 °F -7.2 °F 6.8 °F 85% 29.19 in 4.0 mi NNW 17.3 mph - 0.00 in   Overcast
12:38 AM 10.4 °F -7.7 °F 6.8 °F 85% 29.19 in 1.8 mi NW 18.4 mph - 0.00 in Snow Light Snow
12:49 AM 10.4 °F -7.2 °F 6.8 °F 85% 29.19 in 2.0 mi NW 17.3 mph - 0.00 in Snow Light Snow
12:53 AM 10.0 °F -5.9 °F 6.1 °F 84% 29.16 in 2.5 mi NW 13.8 mph - 0.00 in Snow Light Snow
1:12 AM 10.4 °F -5.4 °F 6.8 °F 85% 29.20 in 1.2 mi NW 13.8 mph - 0.00 in Snow Light Snow
1:42 AM 10.4 °F -7.2 °F 6.8 °F 85% 29.21 in 3.0 mi NW 17.3 mph - 0.00 in Snow Light Snow
1:53 AM 10.0 °F -7.6 °F 6.1 °F 84% 29.19 in 2.5 mi NW 17.3 mph 25.3 mph 0.00 in Snow Light Snow
2:11 AM 10.4 °F -5.4 °F 6.8 °F 85% 29.23 in 3.0 mi NW 13.8 mph 24.2 mph 0.00 in   Overcast
2:28 AM 10.4 °F -8.6 °F 6.8 °F 85% 29.23 in 1.5 mi NW 20.7 mph 26.5 mph 0.00 in Snow Light Snow
2:46 AM 10.4 °F -6.6 °F 5.0 °F 79% 29.24 in 3.0 mi NW 16.1 mph - 0.00 in   Haze
3:20 AM 10.4 °F -5.4 °F 6.8 °F 85% 29.25 in 2.5 mi NW 13.8 mph - 0.00 in Snow Light Snow
3:28 AM 10.4 °F -7.7 °F 6.8 °F 85% 29.25 in 4.0 mi NW 18.4 mph 23.0 mph 0.00 in   Haze
3:53 AM 10.0 °F -8.6 °F 3.9 °F 76% 29.23 in 3.0 mi NW 19.6 mph 23.0 mph 0.00 in Snow Light Snow
4:00 AM 10.4 °F -7.7 °F 5.0 °F 79% 29.26 in 2.0 mi NW 18.4 mph - 0.00 in Snow Light Snow
4:07 AM 10.4 °F -4.8 °F 6.8 °F 85% 29.26 in 1.2 mi NW 12.7 mph - 0.00 in Snow Light Snow
4:32 AM 10.4 °F -7.2 °F 6.8 °F 85% 29.27 in 1.0 mi NW 17.3 mph - 0.00 in Snow Light Snow
4:36 AM 10.4 °F -6.0 °F 6.8 °F 85% 29.27 in 2.5 mi WNW 15.0 mph - 0.00 in Snow Light Snow
4:48 AM 10.4 °F -6.6 °F 3.2 °F 73% 29.27 in 5.0 mi NW 16.1 mph - 0.00 in   Haze
4:53 AM 10.0 °F -8.1 °F 3.9 °F 76% 29.24 in 4.0 mi NW 18.4 mph - 0.00 in   Haze
4:58 AM 10.4 °F -6.6 °F 5.0 °F 79% 29.27 in 1.8 mi WNW 16.1 mph - 0.00 in Snow Light Snow
5:13 AM 10.4 °F -6.0 °F 3.2 °F 73% 29.28 in 3.0 mi WNW 15.0 mph 25.3 mph 0.00 in   Haze
5:39 AM 10.4 °F -5.4 °F 5.0 °F 79% 29.29 in 1.8 mi NW 13.8 mph 23.0 mph 0.00 in Snow Light Snow
5:53 AM 10.9 °F -7.0 °F 5.0 °F 77% 29.26 in 1.8 mi WNW 18.4 mph - 0.00 in Snow Light Snow
6:01 AM 10.4 °F -7.2 °F 3.2 °F 73% 29.30 in 3.0 mi WNW 17.3 mph 25.3 mph 0.00 in   Haze
6:22 AM 10.4 °F -7.7 °F 3.2 °F 73% 29.30 in 1.8 mi NW 18.4 mph - 0.00 in Snow Light Snow
6:44 AM 10.4 °F -6.6 °F 5.0 °F 79% 29.31 in 1.0 mi WNW 16.1 mph 28.8 mph 0.00 in   Haze
6:48 AM 10.4 °F -7.2 °F 3.2 °F 73% 29.31 in 2.0 mi WNW 17.3 mph 27.6 mph 0.00 in   Haze
6:53 AM 10.9 °F -5.4 °F 3.9 °F 73% 29.28 in 4.0 mi WNW 15.0 mph 23.0 mph 0.00 in   Haze
7:01 AM 10.4 °F -6.0 °F 3.2 °F 73% 29.31 in 5.0 mi NW 15.0 mph - N/A   Haze
7:08 AM 10.4 °F -5.4 °F 3.2 °F 73% 29.31 in 3.0 mi WNW 13.8 mph - N/A   Haze
7:15 AM 10.4 °F -6.0 °F 3.2 °F 73% 29.31 in 4.0 mi WNW 15.0 mph - N/A   Haze
7:23 AM 10.4 °F -8.6 °F 3.2 °F 73% 29.31 in 3.0 mi WNW 20.7 mph - N/A   Haze
7:26 AM 10.4 °F -8.6 °F 5.0 °F 79% 29.31 in 2.5 mi WNW 20.7 mph - N/A   Haze
7:31 AM 12.2 °F -3.1 °F 5.0 °F 73% 29.32 in 3.0 mi WNW 13.8 mph - N/A   Haze
7:38 AM 12.2 °F -1.8 °F 5.0 °F 73% 29.32 in 6.0 mi WNW 11.5 mph 19.6 mph N/A   Haze
7:53 AM 12.0 °F -4.0 °F 6.1 °F 77% 29.29 in 10.0 mi NW 15.0 mph - N/A   Overcast
8:17 AM 12.2 °F -3.1 °F 6.8 °F 79% 29.32 in 4.0 mi West 13.8 mph - 0.00 in Snow Light Snow
8:53 AM 14.0 °F -2.0 °F 5.0 °F 67% 29.30 in 6.0 mi West 16.1 mph - 0.00 in   Haze
9:53 AM 16.0 °F 0.1 °F 7.0 °F 68% 29.31 in 5.0 mi West 17.3 mph 23.0 mph 0.00 in   Haze
10:53 AM 16.0 °F 0.6 °F 9.0 °F 74% 29.33 in 6.0 mi WNW 16.1 mph 24.2 mph 0.00 in   Haze
11:01 AM 15.8 °F 2.7 °F 8.6 °F 73% 29.36 in 7.0 mi WNW 11.5 mph - 0.00 in Snow Light Snow
11:16 AM 15.8 °F 0.9 °F 8.6 °F 73% 29.36 in 1.8 mi West 15.0 mph 24.2 mph 0.00 in Snow Light Snow
11:20 AM 15.8 °F 1.4 °F 8.6 °F 73% 29.36 in 1.0 mi West 13.8 mph 24.2 mph 0.00 in Snow Light Snow
11:24 AM 15.8 °F 2.1 °F 8.6 °F 73% 29.36 in 1.2 mi West 12.7 mph 23.0 mph 0.00 in Snow Light Snow
11:29 AM 15.8 °F 1.4 °F 8.6 °F 73% 29.36 in 3.0 mi WSW 13.8 mph - 0.00 in Snow Light Snow
11:36 AM 17.6 °F 1.3 °F 8.6 °F 68% 29.36 in 1.8 mi SW 19.6 mph 23.0 mph 0.00 in Snow Light Snow
11:47 AM 17.6 °F 3.7 °F 8.6 °F 68% 29.37 in 3.0 mi WNW 13.8 mph - 0.00 in Snow Light Snow
11:53 AM 17.1 °F 1.0 °F 10.0 °F 74% 29.34 in 4.0 mi West 18.4 mph 23.0 mph 0.00 in Snow Light Snow
12:13 PM 17.6 °F 1.7 °F 10.4 °F 73% 29.37 in 2.5 mi West 18.4 mph - 0.00 in   Haze
12:20 PM 17.6 °F 3.2 °F 10.4 °F 73% 29.37 in 3.0 mi West 15.0 mph - 0.00 in   Haze
12:48 PM 17.6 °F 2.7 °F 10.4 °F 73% 29.38 in 1.8 mi West 16.1 mph 21.9 mph 0.00 in Snow Light Snow
12:53 PM 18.0 °F 2.2 °F 10.9 °F 74% 29.35 in 1.8 mi WSW 18.4 mph - 0.00 in Snow Light Snow
12:57 PM 17.6 °F 2.7 °F 10.4 °F 73% 29.38 in 3.0 mi WSW 16.1 mph - 0.00 in Snow Light Snow
1:53 PM 19.0 °F 3.6 °F 10.0 °F 68% 29.35 in 3.0 mi WSW 18.4 mph 24.2 mph 0.00 in   Haze
2:31 PM 19.4 °F 3.6 °F 10.4 °F 68% 29.38 in 2.0 mi West 19.6 mph 28.8 mph N/A   Haze
2:45 PM 19.4 °F 4.1 °F 10.4 °F 68% 29.39 in 5.0 mi WSW 18.4 mph - N/A   Haze
2:53 PM 19.9 °F 6.2 °F 9.0 °F 62% 29.36 in 9.0 mi WSW 15.0 mph - N/A   Overcast
3:53 PM 21.0 °F 8.1 °F 10.9 °F 65% 29.35 in 10.0 mi WSW 13.8 mph 20.7 mph 0.00 in   Overcast
4:53 PM 21.0 °F 8.1 °F 12.0 °F 68% 29.34 in 10.0 mi WSW 13.8 mph - N/A   Overcast
5:53 PM 21.0 °F 12.4 °F 12.9 °F 71% 29.34 in 3.0 mi SW 6.9 mph - 0.00 in Snow Light Snow
6:08 PM 21.2 °F 11.7 °F 14.0 °F 74% 29.37 in 2.5 mi SW 8.1 mph - 0.00 in Snow Light Snow
6:53 PM 19.9 °F 14.9 °F 16.0 °F 85% 29.33 in 1.8 mi SSW 3.5 mph - 0.00 in Snow Light Snow
7:07 PM 19.4 °F - 15.8 °F 86% 29.36 in 2.0 mi Calm Calm - 0.00 in Snow Light Snow
7:23 PM 19.4 °F 14.3 °F 15.8 °F 86% 29.35 in 2.0 mi NNE 3.5 mph - 0.01 in Snow Light Snow
7:39 PM 19.4 °F 14.3 °F 17.6 °F 93% 29.35 in 1.8 mi NE 3.5 mph - 0.01 in Snow Light Snow
7:53 PM 19.0 °F 13.9 °F 17.1 °F 92% 29.32 in 1.5 mi ENE 3.5 mph - 0.01 in Snow Light Snow
8:46 PM 19.4 °F 10.4 °F 17.6 °F 93% 29.34 in 2.5 mi ENE 6.9 mph - 0.00 in Snow Light Snow
8:53 PM 19.0 °F 10.0 °F 16.0 °F 88% 29.31 in 2.5 mi NE 6.9 mph - 0.00 in Snow Light Snow
8:55 PM 19.4 °F 11.5 °F 17.6 °F 93% 29.34 in 3.0 mi NE 5.8 mph - 0.00 in Snow Light Snow
9:20 PM 19.4 °F 14.3 °F 17.6 °F 93% 29.33 in 2.5 mi NNE 3.5 mph - 0.00 in Snow Light Snow
9:30 PM 19.4 °F 14.3 °F 17.6 °F 93% 29.33 in 1.2 mi NNE 3.5 mph - 0.01 in Snow Light Snow
9:40 PM 19.4 °F - 17.6 °F 93% 29.33 in 1.0 mi Calm Calm - 0.01 in Snow Light Snow
9:53 PM 19.9 °F - 19.0 °F 96% 29.29 in 1.0 mi Calm Calm - 0.02 in Snow Light Snow
10:01 PM 19.4 °F 12.8 °F 17.6 °F 93% 29.32 in 0.8 mi NW 4.6 mph - 0.01 in Snow Light Snow
10:12 PM 19.4 °F 10.4 °F 17.6 °F 93% 29.32 in 1.2 mi NW 6.9 mph - 0.01 in Snow Light Snow
10:18 PM 19.4 °F 10.4 °F 17.6 °F 93% 29.32 in 2.0 mi NNW 6.9 mph - 0.01 in Snow Light Snow
10:26 PM 19.4 °F 9.5 °F 17.6 °F 93% 29.31 in 4.0 mi NNW 8.1 mph - 0.01 in Snow Light Snow
10:51 PM 19.4 °F 7.9 °F 17.6 °F 93% 29.31 in 4.0 mi NNE 10.4 mph - 0.01 in Snow Light Snow
10:53 PM 19.9 °F 9.3 °F 17.1 °F 89% 29.28 in 4.0 mi NNE 9.2 mph - 0.01 in Snow Light Snow
11:15 PM 19.4 °F 11.5 °F 17.6 °F 93% 29.31 in 6.0 mi North 5.8 mph - 0.00 in Snow Light Snow
11:48 PM 17.6 °F 6.4 °F 14.0 °F 86% 29.31 in 10.0 mi NNW 9.2 mph - 0.00 in   Overcast
11:53 PM 18.0 °F 6.1 °F 14.0 °F 84% 29.29 in 10.0 mi NNW 10.4 mph - 0.00 in   Overcast